TimeMDT,TemperatureF,Dew PointF,Humidity,Sea Level PressureIn,VisibilityMPH,Wind Direction,Wind SpeedMPH,Gust SpeedMPH,PrecipitationIn,Events,Conditions,WindDirDegrees,DateUTC
12:58 AM,51.1,29.1,43,29.97,10.0,WNW,10.4,-,N/A,,Clear,300,2013-04-29 06:58:00
1:58 AM,50.4,27.0,40,29.96,10.0,NW,10.4,-,N/A,,Clear,320,2013-04-29 07:58:00
2:58 AM,48.7,25.7,41,29.95,10.0,NNW,6.9,-,N/A,,Clear,330,2013-04-29 08:58:00
3:58 AM,40.5,26.1,57,29.95,10.0,WSW,2.3,-,N/A,,Clear,240,2013-04-29 09:58:00
4:58 AM,42.6,25.7,51,29.94,10.0,West,4.6,-,N/A,,Clear,280,2013-04-29 10:58:00
5:58 AM,45.5,27.5,49,29.93,10.0,NW,8.1,-,N/A,,Clear,320,2013-04-29 11:58:00
6:58 AM,46.2,27.7,48,29.92,10.0,NNW,4.6,-,N/A,,Clear,340,2013-04-29 12:58:00
7:58 AM,45.3,28.9,53,29.93,10.0,NW,5.8,-,N/A,,Clear,310,2013-04-29 13:58:00
8:58 AM,57.4,27.5,32,29.92,10.0,West,10.4,-,N/A,,Mostly Cloudy,260,2013-04-29 14:58:00
9:33 AM,60.8,33.8,36,29.94,10.0,West,20.7,-,N/A,,Mostly Cloudy,270,2013-04-29 15:33:00
9:58 AM,60.6,34.5,38,29.91,10.0,West,21.9,26.5,N/A,,Scattered Clouds,280,2013-04-29 15:58:00
10:48 AM,60.8,35.6,39,29.94,10.0,WNW,19.6,-,N/A,,Mostly Cloudy,300,2013-04-29 16:48:00
10:58 AM,60.8,34.0,37,29.92,10.0,WNW,18.4,26.5,N/A,,Mostly Cloudy,300,2013-04-29 16:58:00
11:13 AM,60.8,33.8,36,29.94,10.0,WNW,24.2,31.1,N/A,,Mostly Cloudy,290,2013-04-29 17:13:00
11:58 AM,64.2,32.9,31,29.90,10.0,West,25.3,33.4,N/A,,Partly Cloudy,280,2013-04-29 17:58:00
12:58 PM,67.3,30.7,26,29.86,10.0,WNW,24.2,33.4,N/A,,Scattered Clouds,290,2013-04-29 18:58:00
1:58 PM,69.4,30.9,24,29.83,10.0,West,18.4,27.6,N/A,,Scattered Clouds,260,2013-04-29 19:58:00
1:59 PM,69.8,32.0,25,29.86,10.0,West,17.3,27.6,N/A,,Scattered Clouds,260,2013-04-29 19:59:00
2:19 PM,69.8,32.0,25,29.85,10.0,WNW,19.6,26.5,N/A,,Mostly Cloudy,290,2013-04-29 20:19:00
2:29 PM,69.8,32.0,25,29.84,10.0,WNW,19.6,28.8,N/A,,Mostly Cloudy,290,2013-04-29 20:29:00
2:34 PM,69.8,32.0,25,29.84,10.0,WNW,17.3,28.8,N/A,,Overcast,290,2013-04-29 20:34:00
2:44 PM,69.8,32.0,25,29.83,10.0,WNW,27.6,31.1,N/A,,Mostly Cloudy,300,2013-04-29 20:44:00
2:58 PM,69.1,32.4,26,29.80,10.0,WNW,21.9,27.6,N/A,,Scattered Clouds,300,2013-04-29 20:58:00
3:24 PM,71.6,30.2,22,29.81,10.0,WNW,27.6,36.8,N/A,,Mostly Cloudy,290,2013-04-29 21:24:00
3:58 PM,71.2,28.6,20,29.78,10.0,WNW,20.7,34.5,N/A,,Partly Cloudy,290,2013-04-29 21:58:00
4:58 PM,70.7,27.1,20,29.75,10.0,WNW,25.3,34.5,N/A,,Mostly Cloudy,290,2013-04-29 22:58:00
5:58 PM,69.8,25.5,19,29.74,8.0,WNW,23.0,39.1,N/A,,Mostly Cloudy,290,2013-04-29 23:58:00
6:58 PM,65.8,28.6,25,29.74,9.0,NNW,24.2,29.9,N/A,,Mostly Cloudy,330,2013-04-30 00:58:00
7:58 PM,63.7,23.4,22,29.77,10.0,NNW,23.0,-,N/A,,Mostly Cloudy,330,2013-04-30 01:58:00
8:58 PM,59.0,21.4,23,29.78,10.0,NNW,20.7,-,N/A,,Scattered Clouds,330,2013-04-30 02:58:00
9:58 PM,54.7,18.7,24,29.83,10.0,NW,20.7,-,N/A,,Clear,320,2013-04-30 03:58:00
10:58 PM,49.1,15.8,27,29.86,10.0,WNW,18.4,-,N/A,,Clear,290,2013-04-30 04:58:00
11:58 PM,47.1,13.1,25,29.87,10.0,WNW,19.6,-,N/A,,Clear,290,2013-04-30 05:58:00